QPF
0.00 0.00 0.00 0.00 0.00 0.00 0.00 0.00 0.00 0.00 0.00 0.00 0.00 0.00 0.00 0.00 0.00 0.00 0.00 0.00 0.00 0.00 0.00 0.00 0.00 0.00 0.00 0.00 0.00 0.00 0.00 0.00 0.00 0.00 0.00 0.00 0.00 0.00 0.00 0.00 0.00 0.00 0.00 0.00 0.00
0.00 0.00 0.00 0.00 0.00 0.00 0.00 0.00 0.00 0.00 0.00 0.00 0.00 0.00 0.00 0.00 0.00 0.00 0.00 0.00 0.00 0.00 0.00 0.00 0.00 0.00 0.00 0.00 0.00 0.00 0.00 0.00 0.00 0.00 0.00 0.00 0.00 0.00 0.00 0.00 0.00 0.00 0.00 0.01 0.00
0.00 0.00 0.00 0.00 0.00 0.00 0.00 0.00 0.00 0.00 0.00 0.00 0.00 0.00 0.00 0.00 0.00 0.00 0.00 0.00 0.00 0.00 0.00 0.00 0.00 0.00 0.00 0.00 0.00 0.00 0.00 0.00 0.00 0.00 0.00 0.00 0.00 0.00 0.00 0.00 0.00 0.00 0.00 0.00 0.00
0.00 0.00 0.00 0.00 0.00 0.00 0.00 0.00 0.00 0.00 0.00 0.00 0.00 0.00 0.00 0.00 0.00 0.00 0.00 0.00 0.00 0.00 0.00 0.00 0.00 0.00 0.00 0.00 0.00 0.00 0.00 0.00 0.00 0.00 0.00 0.00 0.00 0.00 0.00 0.00 0.00 0.00 0.00 0.00 0.00
0.00 0.00 0.00 0.00 0.00 0.00 0.00 0.00 0.00 0.00 0.00 0.00 0.00 0.00 0.00 0.00 0.00 0.00 0.00 0.00 0.00 0.00 0.00 0.00 0.00 0.00 0.00 0.00 0.00 0.00 0.00 0.00 0.00 0.00 0.00 0.00 0.00 0.00 0.00 0.00 0.00 0.00 0.00 0.00 0.00
0.00 0.00 0.00 0.00 0.00 0.00 0.00 0.00 0.00 0.00 0.00 0.00 0.00 0.00 0.00 0.00 0.00 0.00 0.00 0.00 0.00 0.00 0.00 0.00 0.00 0.00 0.00 0.00 0.00 0.00 0.00 0.00 0.00 0.00 0.00 0.00 0.00 0.00 0.00 0.00 0.00 0.00 0.00 0.00 0.00
0.00 0.00 0.00 0.00 0.00 0.00 0.00 0.00 0.00 0.00 0.00 0.00 0.00 0.00 0.00 0.00 0.00 0.00 0.00 0.00 0.00 0.00 0.00 0.00 0.00 0.00 0.00 0.00 0.00 0.00 0.00 0.00 0.00 0.00 0.00 0.00 0.00 0.00 0.00 0.00 0.00 0.00 0.00 0.00 0.00
0.00 0.00 0.00 0.00 0.00 0.00 0.00 0.00 0.00 0.00 0.00 0.00 0.00 0.00 0.00 0.00 0.00 0.00 0.00 0.00 0.00 0.00 0.00 0.00 0.00 0.00 0.00 0.00 0.00 0.00 0.00 0.00 0.00 0.00 0.00 0.00 0.00 0.00 0.00 0.00 0.00 0.00 0.00 0.00 0.00
0.00 0.00 0.00 0.00 0.00 0.00 0.00 0.00 0.00 0.00 0.00 0.00 0.00 0.00 0.00 0.00 0.00 0.00 0.00 0.00 0.00 0.00 0.00 0.00 0.00 0.00 0.00 0.00 0.00 0.00 0.00 0.00 0.00 0.00 0.00 0.00 0.00 0.00 0.00 0.00 0.00 0.00 0.00 0.00 0.00
0.00 0.00 0.00 0.00 0.00 0.00 0.00 0.00 0.00 0.00 0.00 0.00 0.00 0.00 0.00 0.00 0.00 0.00 0.00 0.00 0.00 0.00 0.00 0.00 0.00 0.00 0.00 0.00 0.00 0.00 0.00 0.00 0.00 0.00 0.00 0.00 0.00 0.00 0.00 0.00 0.00 0.00 0.00 0.00 0.00
0.00 0.00 0.00 0.00 0.00 0.00 0.00 0.00 0.00 0.00 0.00 0.00 0.00 0.00 0.00 0.00 0.00 0.00 0.00 0.00 0.00 0.00 0.00 0.00 0.00 0.00 0.00 0.00 0.00 0.00 0.00 0.00 0.00 0.00 0.00 0.00 0.00 0.00 0.00 0.00 0.00 0.00 0.00 0.00 0.00
0.00 0.00 0.00 0.00 0.00 0.00 0.00 0.00 0.00 0.00 0.00 0.00 0.00 0.00 0.00 0.00 0.00 0.00 0.00 0.00 0.00 0.00 0.00 0.00 0.00 0.00 0.00 0.00 0.00 0.00 0.00 0.00 0.00 0.00 0.00 0.00 0.00 0.00 0.00 0.00 0.00 0.00 0.00 0.00 0.00
0.00 0.00 0.00 0.00 0.00 0.00 0.00 0.00 0.00 0.00 0.00 0.00 0.00 0.00 0.00 0.00 0.00 0.00 0.00 0.00 0.00 0.00 0.00 0.00 0.00 0.00 0.00 0.00 0.00 0.00 0.00 0.00 0.00 0.00 0.00 0.00 0.00 0.00 0.00 0.00 0.00 0.00 0.00 0.00 0.00
0.00 0.00 0.00 0.00 0.00 0.00 0.00 0.00 0.00 0.00 0.00 0.00 0.00 0.00 0.00 0.00 0.00 0.00 0.00 0.00 0.00 0.00 0.00 0.00 0.00 0.00 0.00 0.00 0.00 0.00 0.00 0.00 0.00 0.00 0.00 0.00 0.00 0.00 0.00 0.00 0.00 0.00 0.00 0.00 0.00
0.00 0.00 0.00 0.00 0.00 0.00 0.00 0.00 0.00 0.00 0.00 0.00 0.00 0.00 0.00 0.00 0.00 0.00 0.00 0.00 0.00 0.00 0.00 0.00 0.00 0.00 0.00 0.00 0.00 0.00 0.00 0.00 0.00 0.00 0.00 0.00 0.00 0.00 0.00 0.00 0.00 0.00 0.00 0.00 0.00
0.00 0.00 0.00 0.00 0.00 0.00 0.00 0.00 0.00 0.00 0.00 0.00 0.00 0.00 0.00 0.00 0.00 0.00 0.00 0.00 0.00 0.00 0.00 0.00 0.00 0.00 0.00 0.00 0.00 0.00 0.00 0.00 0.00 0.00 0.00 0.00 0.00 0.00 0.00 0.00 0.00 0.00 0.00 0.00 0.00
0.00 0.00 0.00 0.00 0.00 0.00 0.00 0.00 0.00 0.00 0.00 0.00 0.00 0.00 0.00 0.00 0.00 0.00 0.00 0.00 0.00 0.00 0.00 0.00 0.00 0.00 0.00 0.00 0.00 0.00 0.00 0.00 0.00 0.00 0.00 0.00 0.00 0.00 0.00 0.00 0.00 0.00 0.00 0.00 0.00
0.00 0.00 0.00 0.00 0.00 0.00 0.00 0.00 0.00 0.00 0.00 0.00 0.00 0.00 0.00 0.00 0.00 0.00 0.00 0.00 0.00 0.00 0.00 0.00 0.00 0.00 0.00 0.00 0.00 0.00 0.00 0.00 0.00 0.00 0.00 0.00 0.00 0.00 0.00 0.00 0.00 0.00 0.00 0.00 0.00
0.00 0.00 0.00 0.00 0.00 0.00 0.00 0.00 0.00 0.00 0.01 0.03 0.00 0.00 0.00 0.00 0.00 0.00 0.00 0.00 0.00 0.00 0.00 0.00 0.00 0.00 0.00 0.00 0.00 0.00 0.00 0.00 0.00 0.00 0.00 0.00 0.00 0.00 0.00 0.00 0.00 0.00 0.00 0.00 0.00
0.00 0.00 0.00 0.00 0.00 0.00 0.00 0.00 0.00 0.00 0.02 0.02 0.00 0.00 0.00 0.00 0.00 0.00 0.00 0.00 0.00 0.00 0.00 0.00 0.00 0.00 0.00 0.00 0.00 0.00 0.00 0.00 0.00 0.00 0.00 0.00 0.00 0.00 0.00 0.00 0.00 0.00 0.00 0.00 0.00
0.00 0.00 0.00 0.00 0.00 0.00 0.00 0.00 0.00 0.00 0.01 0.03 0.01 0.00 0.00 0.00 0.00 0.00 0.00 0.00 0.00 0.00 0.00 0.00 0.00 0.00 0.00 0.00 0.00 0.00 0.00 0.00 0.00 0.00 0.00 0.00 0.00 0.00 0.00 0.00 0.00 0.00 0.00 0.00 0.00
0.00 0.00 0.00 0.01 0.01 0.00 0.00 0.00 0.00 0.01 0.01 0.01 0.01 0.00 0.00 0.00 0.00 0.00 0.00 0.00 0.02 0.01 0.00 0.00 0.00 0.00 0.00 0.00 0.00 0.00 0.00 0.00 0.00 0.00 0.00 0.00 0.00 0.00 0.00 0.00 0.00 0.00 0.00 0.00 0.00
0.00 0.00 0.00 0.04 0.14 0.11 0.10 0.08 0.01 0.00 0.02 0.02 0.01 0.00 0.00 0.00 0.00 0.01 0.01 0.01 0.04 0.03 0.02 0.02 0.01 0.01 0.01 0.00 0.00 0.00 0.00 0.00 0.00 0.00 0.00 0.00 0.00 0.00 0.00 0.00 0.00 0.00 0.00 0.00 0.00
0.00 0.00 0.01 0.03 0.08 0.09 0.05 0.04 0.04 0.01 0.04 0.07 0.01 0.00 0.00 0.00 0.00 0.00 0.00 0.00 0.01 0.01 0.00 0.00 0.00 0.00 0.00 0.00 0.00 0.00 0.00 0.00 0.00 0.00 0.00 0.00 0.00 0.00 0.00 0.00 0.00 0.00 0.00 0.00 0.00
0.00 0.00 0.00 0.03 0.06 0.05 0.03 0.03 0.05 0.02 0.03 0.03 0.03 0.00 0.00 0.00 0.00 0.00 0.00 0.00 0.00 0.00 0.00 0.00 0.00 0.00 0.00 0.00 0.00 0.00 0.00 0.00 0.00 0.00 0.00 0.00 0.00 0.00 0.00 0.00 0.00 0.00 0.00 0.00 0.00
0.00 0.01 0.00 0.00 0.01 0.03 0.04 0.03 0.04 0.03 0.01 0.03 0.01 0.02 0.01 0.01 0.00 0.00 0.00 0.00 0.00 0.00 0.00 0.00 0.00 0.00 0.00 0.00 0.00 0.00 0.00 0.00 0.00 0.00 0.00 0.00 0.00 0.00 0.00 0.00 0.00 0.00 0.00 0.00 0.00
0.01 0.00 0.01 0.00 0.00 0.00 0.01 0.02 0.02 0.02 0.01 0.00 0.01 0.01 0.01 0.00 0.00 0.00 0.00 0.00 0.00 0.00 0.00 0.00 0.00 0.00 0.00 0.00 0.00 0.00 0.00 0.00 0.00 0.00 0.00 0.00 0.00 0.00 0.00 0.00 0.00 0.00 0.00 0.00 0.00
MSLP
1018.96 1018.70 1018.37 1018.02 1017.72 1017.38 1017.06 1016.73 1016.56 1016.31 1016.01 1015.66 1015.36 1015.15 1015.04 1014.87 1014.82 1014.88 1014.09 1011.08 1011.10 1010.76 1010.86 1011.11 1011.55 1011.97 1012.03 1012.31 1012.55 1012.97 1013.90 1014.05 1013.23 1012.36 1010.98 1009.81 1009.07 1007.77 1007.32 1006.87 1005.99 1006.34 1006.57 1006.09 1006.33
1018.89 1018.60 1018.29 1017.95 1017.52 1017.24 1016.91 1016.52 1016.18 1015.94 1015.79 1015.57 1015.20 1014.87 1014.69 1014.48 1014.36 1013.43 1010.03 1010.00 1010.06 1010.05 1010.61 1010.99 1011.77 1011.99 1012.61 1012.76 1012.88 1013.05 1013.49 1013.11 1012.57 1011.68 1010.90 1010.04 1009.31 1008.63 1007.85 1007.08 1006.07 1006.44 1006.43 1006.57 1006.34
1018.88 1018.49 1018.09 1017.71 1017.37 1017.00 1016.67 1016.43 1016.07 1015.75 1015.43 1015.32 1015.14 1014.69 1014.54 1014.30 1013.82 1010.11 1008.13 1009.20 1009.76 1010.09 1010.55 1010.73 1011.23 1011.68 1012.70 1012.97 1012.90 1012.88 1012.77 1012.33 1011.92 1011.02 1010.50 1009.89 1009.10 1008.75 1008.21 1007.54 1006.49 1006.53 1007.10 1007.06 1007.23
1018.72 1018.35 1017.99 1017.64 1017.23 1016.83 1016.47 1016.09 1015.87 1015.51 1015.25 1014.97 1014.86 1014.64 1014.37 1014.27 1012.24 1008.84 1008.44 1008.93 1009.46 1009.99 1010.56 1011.01 1011.57 1012.13 1012.74 1012.86 1012.67 1012.84 1012.25 1011.96 1011.46 1010.80 1010.39 1010.17 1009.30 1008.74 1008.38 1007.30 1006.37 1006.17 1006.73 1007.09 1007.08
1018.54 1018.05 1017.68 1017.24 1016.92 1016.54 1016.16 1015.77 1015.46 1015.26 1015.04 1014.85 1014.60 1014.48 1014.58 1013.58 1010.84 1008.61 1008.50 1008.99 1009.70 1010.17 1010.39 1011.10 1011.69 1012.25 1012.49 1012.58 1012.53 1012.39 1011.74 1011.45 1010.92 1010.54 1010.25 1010.01 1008.44 1008.85 1008.19 1006.92 1006.26 1006.55 1005.91 1007.04 1007.51
1018.23 1017.78 1017.30 1016.91 1016.55 1016.17 1015.81 1015.45 1015.06 1014.79 1014.70 1014.58 1014.37 1014.43 1014.30 1011.98 1008.28 1008.33 1008.55 1009.25 1009.45 1010.08 1010.37 1010.59 1011.03 1011.25 1011.61 1011.86 1011.92 1011.15 1010.90 1010.77 1010.67 1010.33 1010.23 1009.98 1009.02 1009.00 1007.38 1006.70 1006.49 1006.36 1006.53 1006.90 1007.39
1017.90 1017.55 1017.03 1016.53 1016.04 1015.64 1015.34 1015.03 1014.63 1014.36 1014.31 1014.24 1014.10 1014.30 1013.69 1009.45 1007.85 1008.30 1008.75 1008.96 1009.23 1009.28 1009.81 1010.17 1010.51 1010.73 1011.18 1011.32 1010.81 1010.69 1010.95 1010.60 1009.87 1009.55 1009.78 1009.74 1008.88 1007.25 1007.08 1006.79 1006.20 1005.85 1006.10 1006.49 1006.87
1017.57 1017.14 1016.76 1016.32 1015.88 1015.37 1014.89 1014.43 1013.97 1013.69 1013.75 1013.83 1013.89 1014.11 1012.20 1008.43 1008.11 1008.17 1008.27 1008.84 1009.18 1009.43 1009.59 1009.97 1010.56 1011.11 1011.22 1010.74 1010.40 1010.70 1010.69 1010.30 1008.64 1009.07 1009.10 1009.40 1007.95 1006.69 1006.09 1006.61 1006.91 1006.60 1006.30 1006.66 1006.35
1017.32 1016.86 1016.40 1015.88 1015.30 1014.98 1014.61 1014.06 1013.41 1012.90 1013.00 1013.42 1013.85 1013.70 1010.58 1008.01 1007.95 1007.07 1007.26 1008.01 1009.03 1009.81 1009.98 1010.07 1010.57 1011.15 1010.96 1011.19 1011.00 1010.45 1009.98 1009.30 1008.15 1007.83 1007.98 1008.07 1007.32 1006.12 1005.44 1006.01 1005.96 1005.65 1005.89 1006.37 1006.72
1017.12 1016.66 1016.14 1015.56 1015.05 1014.66 1014.19 1013.82 1013.56 1013.05 1013.07 1013.41 1013.41 1013.57 1009.64 1007.13 1006.28 1006.43 1006.89 1007.19 1008.44 1009.66 1010.41 1010.34 1010.83 1011.07 1011.22 1011.51 1010.69 1009.85 1009.38 1008.55 1008.02 1007.18 1007.30 1007.15 1006.42 1005.36 1005.03 1005.42 1005.03 1005.20 1005.85 1006.00 1006.29
1016.99 1016.43 1015.83 1015.21 1014.77 1014.44 1014.25 1013.98 1013.99 1013.42 1012.81 1010.87 1010.10 1009.02 1007.37 1006.09 1005.35 1005.90 1006.37 1007.12 1007.71 1009.02 1009.97 1010.22 1010.79 1010.68 1010.18 1010.00 1009.32 1008.75 1008.65 1008.04 1006.88 1006.23 1006.53 1006.98 1005.88 1005.40 1005.01 1005.62 1005.28 1005.41 1005.86 1005.83 1006.30
1016.51 1015.96 1015.43 1014.79 1014.29 1013.81 1013.75 1013.57 1011.48 1010.88 1010.46 1008.87 1008.48 1008.05 1006.83 1006.27 1006.05 1005.25 1005.49 1006.59 1007.47 1008.29 1008.84 1009.74 1009.46 1009.06 1008.90 1008.93 1008.80 1008.58 1008.16 1007.63 1006.43 1005.84 1005.94 1006.42 1006.43 1005.78 1005.25 1004.91 1004.95 1005.12 1005.37 1005.91 1006.38
1016.28 1015.72 1015.05 1014.24 1013.57 1013.46 1013.31 1012.00 1010.49 1010.46 1010.07 1007.34 1006.94 1006.45 1005.77 1005.84 1005.40 1004.80 1004.87 1005.43 1006.30 1007.43 1008.04 1008.50 1007.95 1007.65 1007.90 1007.83 1007.94 1007.66 1007.35 1007.12 1006.93 1006.09 1005.98 1006.13 1006.31 1005.74 1005.02 1004.75 1004.89 1005.29 1005.58 1006.04 1006.25
1015.92 1015.29 1014.75 1013.76 1013.24 1013.48 1012.43 1010.42 1010.13 1010.52 1009.56 1006.57 1005.72 1004.36 1004.51 1004.53 1004.33 1003.69 1003.98 1004.86 1005.75 1006.43 1007.19 1007.44 1006.99 1006.92 1006.75 1006.83 1006.92 1006.68 1006.21 1006.50 1006.67 1006.82 1007.14 1006.89 1006.97 1005.94 1005.45 1005.19 1005.20 1005.59 1006.07 1006.33 1006.47
1015.26 1014.91 1014.55 1014.37 1013.81 1012.79 1010.13 1009.98 1009.97 1010.10 1008.81 1004.72 1004.08 1003.15 1003.33 1003.79 1003.40 1003.14 1003.41 1004.19 1005.07 1005.80 1006.55 1006.53 1006.19 1006.09 1006.24 1005.86 1005.73 1005.76 1005.63 1006.39 1007.05 1007.40 1007.61 1007.49 1007.75 1006.49 1006.17 1005.85 1005.82 1006.12 1006.55 1007.12 1007.41
1014.56 1013.91 1013.76 1013.06 1012.84 1010.26 1009.71 1010.14 1010.10 1009.93 1006.76 1003.78 1002.95 1003.08 1003.63 1003.48 1003.33 1003.21 1003.39 1003.76 1004.47 1005.52 1005.85 1005.84 1005.37 1005.38 1005.03 1004.68 1004.88 1005.32 1006.11 1007.27 1008.24 1008.61 1008.84 1008.14 1008.12 1007.27 1006.51 1006.15 1006.54 1006.83 1007.34 1007.74 1008.16
1014.05 1013.40 1013.48 1012.80 1010.93 1009.45 1009.88 1009.75 1009.79 1008.34 1004.54 1003.23 1002.81 1002.83 1003.08 1003.32 1003.45 1003.37 1003.73 1004.22 1004.69 1005.46 1005.62 1005.56 1005.18 1004.61 1004.28 1004.55 1004.72 1005.38 1006.42 1008.87 1009.63 1010.13 1009.85 1009.00 1008.66 1007.34 1006.69 1006.33 1006.41 1007.02 1007.77 1008.20 1008.52
1012.92 1011.74 1009.92 1009.41 1008.85 1009.52 1009.15 1009.48 1008.04 1005.32 1003.80 1002.32 1002.36 1002.58 1002.95 1003.07 1003.27 1003.51 1003.94 1004.39 1004.74 1005.11 1005.39 1005.34 1005.08 1004.27 1003.68 1003.96 1004.44 1005.43 1006.55 1008.21 1009.85 1010.82 1010.40 1009.51 1008.74 1007.31 1006.75 1006.55 1006.54 1007.23 1007.82 1008.50 1009.01
1012.14 1010.70 1009.76 1008.03 1008.56 1009.63 1009.73 1007.97 1005.89 1004.31 1002.90 1002.39 1002.21 1002.53 1002.82 1002.73 1002.84 1003.39 1003.92 1004.15 1004.32 1004.66 1005.24 1005.11 1004.79 1004.13 1003.82 1003.81 1004.37 1005.58 1006.85 1007.86 1009.55 1010.97 1010.92 1010.04 1008.71 1007.49 1007.03 1007.14 1007.25 1007.98 1008.59 1009.27 1009.89
1012.35 1010.92 1009.13 1007.58 1008.01 1008.61 1008.80 1006.85 1005.08 1003.58 1002.62 1002.57 1002.23 1002.02 1002.35 1002.51 1003.00 1003.23 1003.78 1003.48 1003.91 1004.01 1004.27 1004.77 1004.92 1004.74 1004.40 1004.33 1004.71 1005.18 1006.51 1008.27 1009.86 1011.46 1011.49 1010.39 1009.24 1008.03 1007.69 1007.79 1008.18 1009.01 1009.55 1009.94 1010.64
1012.79 1011.07 1007.74 1007.24 1007.83 1008.54 1007.92 1006.58 1004.73 1003.39 1002.96 1002.98 1002.40 1002.14 1002.41 1002.52 1002.74 1003.17 1003.45 1003.64 1003.56 1004.05 1004.47 1005.05 1005.51 1005.86 1005.43 1005.39 1005.58 1006.14 1007.06 1008.53 1009.89 1011.07 1011.37 1010.93 1009.30 1007.75 1007.47 1007.91 1008.56 1009.07 1009.96 1010.62 1011.22
1013.25 1011.80 1007.71 1007.56 1007.58 1007.04 1006.51 1005.72 1004.55 1003.37 1002.92 1002.64 1002.51 1002.20 1003.13 1003.14 1002.90 1003.35 1003.87 1004.15 1004.12 1004.00 1005.04 1005.84 1006.16 1006.66 1006.54 1006.36 1006.48 1006.80 1007.47 1008.56 1010.01 1011.41 1011.62 1011.10 1009.28 1007.80 1007.55 1008.18 1008.82 1009.78 1010.38 1011.01 1011.50
1013.17 1011.62 1008.17 1007.82 1007.76 1006.88 1006.28 1005.49 1004.52 1003.43 1003.03 1003.03 1002.81 1002.60 1002.90 1003.27 1003.77 1003.78 1004.42 1004.95 1004.77 1005.02 1005.45 1005.95 1007.15 1007.74 1007.78 1007.40 1007.17 1007.64 1008.12 1008.85 1009.90 1010.85 1011.23 1010.98 1009.58 1008.26 1008.58 1009.24 1009.59 1009.99 1010.83 1011.30 1011.74
1013.57 1012.22 1009.49 1008.42 1008.29 1007.90 1007.00 1006.34 1004.53 1003.55 1003.36 1003.48 1003.36 1003.75 1004.38 1004.00 1004.23 1004.77 1005.38 1005.57 1005.55 1005.86 1005.94 1006.06 1007.45 1007.70 1007.94 1007.84 1007.91 1008.36 1008.52 1009.10 1009.79 1010.81 1010.70 1010.24 1009.54 1008.98 1009.39 1009.61 1010.16 1010.72 1011.06 1011.41 1011.91
1013.39 1012.28 1010.92 1009.66 1008.75 1008.55 1007.60 1006.56 1005.20 1004.46 1004.06 1003.90 1004.22 1005.13 1005.46 1004.74 1005.29 1005.81 1006.08 1006.29 1006.44 1006.67 1006.91 1007.19 1008.13 1008.43 1008.49 1008.38 1008.31 1008.45 1008.68 1009.06 1009.54 1009.87 1010.22 1009.84 1009.63 1009.30 1009.48 1009.89 1010.51 1010.97 1011.41 1011.90 1012.31
1012.88 1012.20 1011.54 1010.52 1009.26 1008.49 1007.67 1007.05 1006.32 1005.50 1005.49 1005.06 1005.09 1005.73 1005.93 1005.55 1005.66 1006.36 1006.56 1007.05 1007.41 1007.78 1008.37 1008.68 1009.42 1009.35 1009.44 1009.18 1008.98 1008.84 1008.69 1008.79 1009.16 1009.38 1009.53 1009.44 1009.51 1009.13 1009.73 1010.15 1011.01 1011.27 1011.65 1012.15 1012.57
1012.60 1012.18 1012.17 1010.62 1009.77 1009.03 1008.20 1007.60 1007.24 1006.90 1006.21 1005.76 1005.41 1006.08 1007.04 1006.67 1006.52 1006.79 1007.21 1007.67 1007.96 1008.52 1009.31 1009.85 1010.25 1010.55 1010.62 1010.16 1009.62 1009.12 1008.09 1008.13 1008.37 1008.45 1008.73 1009.20 1008.98 1009.42 1010.12 1010.58 1011.27 1011.81 1012.12 1012.64 1013.06
Thickness
5637 5635 5633 5632 5631 5631 5632 5633 5634 5635 5636 5638 5641 5643 5645 5647 5649 5650 5654 5687 5689 5693 5695 5695 5693 5690 5691 5688 5689 5684 5663 5655 5672 5684 5703 5727 5729 5746 5752 5752 5767 5768 5769 5782 5789
5635 5633 5632 5632 5631 5630 5630 5631 5632 5632 5632 5633 5636 5639 5641 5644 5645 5650 5686 5687 5690 5692 5688 5685 5679 5680 5672 5674 5672 5667 5650 5662 5677 5690 5696 5712 5721 5727 5729 5734 5754 5754 5764 5774 5784
5634 5633 5632 5632 5631 5630 5629 5628 5628 5629 5630 5630 5631 5635 5635 5638 5640 5671 5691 5686 5684 5683 5681 5682 5676 5674 5663 5662 5662 5661 5654 5667 5673 5684 5692 5700 5712 5725 5715 5720 5739 5740 5744 5758 5764
5633 5631 5630 5629 5630 5630 5628 5628 5626 5625 5626 5628 5629 5630 5631 5632 5645 5676 5682 5681 5678 5676 5671 5667 5663 5655 5647 5647 5651 5647 5654 5659 5661 5669 5677 5679 5702 5706 5705 5720 5745 5751 5750 5749 5751
5632 5631 5630 5629 5629 5627 5627 5626 5625 5623 5623 5623 5626 5626 5624 5630 5645 5673 5674 5672 5668 5665 5662 5656 5650 5642 5635 5636 5638 5636 5642 5645 5652 5655 5656 5668 5694 5688 5694 5721 5735 5734 5746 5739 5738
5631 5630 5629 5628 5627 5626 5625 5624 5624 5623 5621 5620 5622 5621 5620 5635 5671 5669 5668 5663 5663 5657 5654 5653 5645 5644 5637 5633 5629 5636 5633 5635 5636 5638 5638 5645 5664 5670 5695 5712 5713 5729 5733 5731 5731
5631 5628 5627 5627 5627 5626 5624 5623 5622 5621 5619 5618 5617 5616 5619 5650 5669 5665 5661 5658 5656 5657 5650 5649 5647 5643 5635 5631 5633 5632 5622 5623 5628 5638 5630 5635 5637 5666 5689 5696 5705 5720 5731 5729 5732
5630 5629 5626 5624 5623 5623 5623 5623 5623 5621 5618 5615 5613 5611 5617 5659 5660 5660 5660 5653 5650 5650 5649 5646 5641 5632 5629 5634 5634 5622 5617 5607 5633 5628 5629 5627 5627 5666 5685 5685 5687 5697 5715 5710 5722
5628 5627 5625 5623 5623 5621 5620 5621 5623 5623 5619 5612 5607 5606 5620 5654 5652 5664 5662 5652 5643 5638 5638 5641 5633 5622 5627 5614 5608 5615 5612 5614 5628 5637 5637 5631 5631 5664 5686 5683 5687 5703 5711 5711 5715
5623 5622 5620 5620 5619 5618 5618 5617 5615 5616 5613 5607 5604 5600 5631 5650 5658 5658 5657 5655 5639 5630 5624 5625 5617 5610 5605 5599 5596 5616 5618 5630 5627 5646 5638 5634 5644 5677 5695 5681 5694 5700 5703 5708 5709
5615 5615 5615 5615 5613 5612 5610 5609 5606 5606 5607 5621 5627 5634 5645 5655 5661 5654 5652 5644 5641 5628 5612 5614 5603 5600 5611 5614 5626 5634 5630 5632 5644 5657 5645 5636 5658 5672 5683 5674 5685 5686 5690 5698 5699
5611 5611 5610 5611 5609 5608 5606 5600 5620 5621 5619 5629 5632 5630 5640 5646 5636 5648 5653 5636 5628 5617 5620 5612 5606 5619 5625 5623 5623 5624 5627 5627 5646 5661 5656 5645 5646 5660 5672 5684 5687 5694 5696 5697 5699
5604 5603 5604 5605 5607 5605 5599 5606 5618 5615 5611 5635 5634 5635 5638 5639 5634 5638 5648 5640 5631 5618 5615 5609 5624 5632 5627 5627 5624 5626 5630 5637 5640 5657 5658 5656 5647 5654 5675 5689 5692 5695 5696 5697 5701
5595 5596 5597 5601 5603 5594 5598 5612 5613 5606 5598 5627 5632 5641 5642 5641 5635 5652 5651 5639 5628 5620 5616 5616 5627 5629 5627 5626 5627 5623 5646 5648 5644 5640 5627 5647 5625 5658 5666 5676 5684 5688 5685 5692 5698
5589 5587 5586 5583 5586 5588 5614 5608 5605 5602 5573 5638 5633 5651 5643 5636 5640 5644 5650 5638 5622 5622 5618 5619 5625 5627 5623 5630 5640 5636 5652 5650 5644 5630 5633 5637 5627 5645 5659 5671 5679 5682 5683 5683 5685
5584 5586 5584 5586 5584 5600 5604 5597 5595 5581 5580 5630 5639 5630 5627 5632 5635 5638 5637 5641 5633 5617 5622 5620 5635 5634 5632 5645 5648 5650 5639 5627 5617 5615 5610 5635 5626 5631 5652 5670 5666 5670 5669 5672 5673
5574 5574 5571 5576 5583 5595 5590 5589 5572 5567 5626 5627 5626 5626 5623 5620 5623 5627 5620 5614 5609 5597 5601 5618 5622 5635 5641 5634 5644 5635 5623 5591 5597 5595 5600 5620 5619 5633 5655 5664 5666 5660 5660 5662 5664
5566 5572 5585 5588 5586 5580 5582 5573 5562 5604 5614 5635 5627 5622 5615 5618 5618 5617 5611 5603 5613 5612 5597 5594 5601 5625 5643 5637 5630 5632 5623 5591 5595 5585 5601 5616 5610 5631 5651 5655 5661 5659 5656 5654 5654
5556 5562 5568 5577 5572 5561 5561 5556 5580 5602 5621 5615 5620 5611 5609 5618 5620 5615 5606 5609 5611 5613 5599 5594 5605 5630 5635 5642 5639 5623 5611 5619 5592 5591 5584 5595 5618 5635 5645 5643 5647 5644 5644 5641 5635
5536 5541 5548 5562 5556 5550 5547 5562 5582 5605 5613 5607 5604 5616 5605 5611 5608 5608 5601 5618 5615 5619 5620 5612 5600 5618 5625 5633 5631 5628 5623 5597 5585 5578 5581 5587 5605 5611 5631 5632 5632 5626 5625 5629 5626
5505 5513 5548 5550 5544 5539 5539 5556 5582 5600 5599 5590 5596 5604 5611 5609 5609 5603 5607 5617 5623 5617 5616 5607 5603 5601 5612 5610 5608 5611 5605 5594 5588 5573 5564 5562 5587 5621 5626 5625 5620 5625 5620 5613 5608
5488 5493 5536 5537 5537 5540 5548 5561 5577 5587 5592 5593 5593 5601 5587 5595 5603 5605 5601 5603 5610 5618 5604 5598 5589 5581 5596 5602 5604 5606 5602 5593 5574 5579 5569 5566 5582 5621 5622 5620 5613 5605 5604 5599 5601
5480 5490 5519 5525 5524 5533 5539 5550 5565 5577 5582 5582 5588 5595 5596 5590 5588 5595 5594 5596 5602 5600 5596 5595 5578 5570 5578 5589 5594 5591 5591 5583 5571 5564 5562 5560 5575 5612 5604 5598 5598 5595 5595 5596 5594
5466 5477 5499 5506 5511 5517 5525 5532 5552 5568 5572 5575 5577 5578 5574 5581 5580 5582 5582 5585 5592 5590 5594 5594 5571 5576 5568 5576 5575 5575 5580 5580 5572 5554 5567 5564 5583 5598 5588 5589 5586 5584 5585 5586 5585
5458 5468 5487 5489 5505 5503 5514 5525 5540 5550 5558 5564 5562 5560 5560 5569 5568 5565 5570 5575 5578 5578 5578 5579 5571 5573 5575 5576 5577 5576 5576 5573 5571 5571 5561 5575 5569 5584 5582 5579 5574 5573 5575 5576 5573
5454 5463 5470 5472 5492 5502 5507 5514 5521 5534 5539 5547 5552 5546 5550 5558 5566 5558 5561 5563 5566 5565 5561 5555 5552 5563 5562 5567 5568 5565 5569 5571 5567 5566 5563 5567 5563 5578 5569 5564 5563 5565 5566 5564 5562
5443 5449 5451 5474 5472 5482 5499 5506 5506 5518 5531 5540 5546 5541 5536 5544 5550 5552 5553 5550 5556 5555 5545 5544 5538 5541 5546 5548 5551 5549 5568 5567 5566 5567 5564 5553 5568 5561 5560 5560 5553 5554 5553 5551 5546